Wales, AK

7:06 AM AKST on February 25, 2017 (GMT -0900)
Tin City LRRS | | Change Station
Active Advisory: Winter Storm Warning

Elev 269 ft 65.56 °N, 167.92 °W | Updated 11 minutes ago

Snow
Snow
29 °F
Feels Like 11 °F
N
41
Wind Variable Wind from South
Gusts 45 mph

Today
High -- | Low -- °F
--% Chance of Precip.
Yesterday
High -- | Low -- °F
Precip. -- in
Pressure 29.88 in
Visibility 0.5 miles
Clouds Mostly Cloudy 200 ft
Windchill 11 °F
Dew Point 29 °F
Humidity 100%
Rainfall 0.00 in
Snow Depth Not available.
9:35 AM 7:14 PM
Waning Crescent, 1% visible
METAR PATC 251555Z AUTO 17036G39KT 1/2SM SN BKN002 M02/M02 A2986 RMK AO2 SNB1455 SLP119 P0000 T10191019
Pressure 29.88 in
Visibility 0.5 miles
Clouds Mostly Cloudy 200 ft
Windchill 11 °F
Dew Point 29 °F
Humidity 100%
Rainfall 0.00 in
Snow Depth Not available.
9:35 AM 7:14 PM
Waning Crescent, 1% visible
METAR PATC 251555Z AUTO 17036G39KT 1/2SM SN BKN002 M02/M02 A2986 RMK AO2 SNB1455 SLP119 P0000 T10191019

Get Your Daily Forecast Email!

Thanks for signing up!

Be on the lookout for a verification email in your inbox.

You'll start receiving the daily forecast at 8 AM.

×

10-Day Weather Forecast

Almanac

Astronomy

Feb. 25, 2017 Rise Set
Actual Time
Civil Twilight
Nautical Twilight
Astronomical Twilight
Moon
Length of Visible Light
Length of Day
Tomorrow will be .
, % of the Moon is Illuminated

Today's Extremes

State Highs State Lows

Community

WunderPhotos

Upload Photos

1,962,540 photos uploaded!

WunderBlog® & News

Nearby

Air Quality

  Air Quality AQ Index Pollutant
Not available.

Snow Depth

Station Depth Elevation

Earthquake Activity

City Distance Mag. Time & Date
Minimum magnitude displayed is 2.5.

Coastal Water Temperatures

Place Temperature

Stations

Nearby Weather Stations

Station Location Temp. Windchill Dew Point Humidity Wind Precip. Elev Updated Type
                   

Watches & Warnings

Winter Storm Warning
Issued: 4:44 AM AKST Feb. 25, 2017 – National Weather Service

... Winter Storm Warning remains in effect until 6 am akst
Sunday...

* snow... total snow accumulation 6 to 12 inches.

* Blowing snow... reducing visibility to one half mile or less at
times with local blizzard conditions.

* Winds... east 25 to 35 mph gusting to 55 mph. The strongest
winds and lowest visibilities are expected Saturday.

* Timing... snow will continue through Sunday morning, and will be
heavy at times through this morning. The strongest winds and
lowest visibilities are expected through this evening.

* Impacts... visibility may be greatly reduced. Travel and
outdoor activities will be difficult.

Precautionary/preparedness actions...

A Winter Storm Warning means one or more significant winter
weather hazards are occurring or expected.